Location: *
(42.2100°N, 19.7900°E)
Time: 13:29:16
(UTC+00:00)

Daily predictions for brighter satellites

Satellite Brightness Start Highest point End
(mag) Time Altitude Azimuth Time Altitude Azimuth Time Altitude Azimuth
YAOGAN 1 4.3 16:04:29 10° E 16:06:28 13° ENE 16:08:26 10° NE
CZ-2C R/B 4.0 16:03:41 10° ESE 16:07:59 27° ENE 16:12:29 10° N
H-2A R/B 2.6 16:06:51 10° S 16:10:45 77° WSW 16:14:51 10° NNW
H-2A R/B 2.1 16:06:27 10° NNE 16:10:57 84° ESE 16:15:20 10° SSW
Cosmos 1626 2.1 16:09:42 10° S 16:13:21 64° E 16:17:02 10° NNE
Cosmos 1939 Rocket 3.4 16:09:36 10° SE 16:13:27 38° ENE 16:17:17 10° N
ATLAS 5 CENTAUR R/B 1.5 16:10:48 10° SSW 16:14:39 57° ESE 16:18:54 10° NE
Cosmos 1953 3.6 16:12:33 10° NNW 16:16:20 44° W 16:20:07 10° SSW
CZ-4 R/B 2.8 16:16:39 10° ESE 16:19:34 19° ENE 16:22:27 10° NNE
MOS 1 Rocket 4.1 16:16:18 10° NE 16:19:58 26° E 16:23:33 10° SSE
SKYMED 2 4.2 16:16:25 10° NNE 16:20:28 37° E 16:24:29 10° SSE
Feng Yun 1-1 Rocket 4.4 16:18:22 10° SE 16:23:30 47° ENE 16:28:45 10° N
Cosmos 1503 Rocket 4.1 16:20:51 10° SSW 16:26:12 86° ESE 16:31:37 10° NNE
NOAA 11 4.3 16:21:10 10° SSE 16:26:40 87° WSW 16:32:13 10° NNW
SMAP 3.8 16:23:12 10° S 16:27:47 60° W 16:32:24 10° NNW
Cosmos 2263 Rocket 2.2 16:22:12 10° SSW 16:27:52 80° ESE 16:33:35 10° NNE
H-2A R/B 3.0 16:25:48 10° ESE 16:29:40 23° ENE 16:33:36 10° NNE
SJ 16-02 3.2 16:30:14 10° ESE 16:31:42 12° E 16:31:42 12° E
CZ-3B R/B 3.5 16:30:09 10° N 16:31:46 14° NE 16:32:50 13° NE
Cosmos 2058 Rocket 4.2 16:28:31 10° NNE 16:32:07 23° ENE 16:35:42 10° SE
Meteor 1-24 Rocket 3.6 16:27:21 10° S 16:32:40 60° E 16:37:53 10° NNE
SL-16 R/B 4.2 16:27:41 10° NW 16:32:43 33° WSW 16:37:44 10° SSW
Cosmos 2228 3.1 16:28:51 10° N 16:33:00 50° E 16:37:09 10° SSE
Cosmos 1315 Rocket 2.8 16:31:49 10° N 16:35:44 57° ENE 16:39:39 10° SSE
Abrixas rocket 1.6 16:34:26 10° WNW 16:37:05 80° SSW 16:39:26 12° ESE
Cosmos 1300 2.6 16:41:03 10° N 16:44:53 78° E 16:48:41 10° SSE
Cosmos 1943 3.1 16:41:08 10° NNW 16:46:50 76° ENE 16:52:28 10° SSE
USA 267 4.0 16:42:30 15° ENE 16:47:08 35° SE 16:52:59 10° SSW
DELTA 2 R/B (1) 4.2 16:42:11 10° W 16:47:36 54° SSW 16:52:59 10° ESE
GENESIS II 4.3 16:44:24 10° SW 16:48:25 82° WNW 16:51:44 15° NNE
Cosmos 1689 Rocket 2.8 16:50:37 28° E 16:50:49 28° E 16:53:20 10° SSE
ARGOS 3.9 16:46:57 10° ESE 16:51:25 28° ENE 16:55:54 10° N
ATLAS 2AS CENTAUR R/B 4.0 16:44:45 10° WSW 16:52:12 42° NW 16:59:33 10° NNE
Cosmos 2279 Rocket 3.9 16:46:23 10° N 16:52:40 74° E 16:58:54 10° SSE
Helios 1A Rocket 3.7 16:49:57 10° SE 16:53:32 30° ENE 16:57:09 10° N
ISS -1.7 16:53:30 10° SSE 16:55:23 14° SE 16:55:25 14° SE
Cosmos 1726 Rocket 3.5 16:51:42 10° N 16:56:01 64° E 17:00:22 10° SSE
Lacrosse 5 3.2 16:53:02 10° NNW 16:56:59 22° NNE 16:58:27 20° NE
Cosmos 773 Rocket 3.9 16:53:59 10° NNW 16:59:09 67° ENE 17:04:14 10° SSE
Okean-O 2.8 16:57:05 10° SE 17:01:20 48° ENE 17:05:37 10° N
CZ-2C R/B 3.7 17:01:39 24° E 17:02:25 24° E 17:06:53 10° SSE
COSMO-SKYMED 1 3.0 17:04:18 10° N 17:08:37 64° WNW 17:12:54 10° SSW
Okean O Rocket 3.9 17:06:09 10° SSW 17:09:58 28° W 17:13:48 10° NW
Aureole 2 Rocket 4.1 17:08:53 10° SSE 17:09:41 16° SSE 17:09:41 16° SSE
RESURS DK-1 4.3 17:08:28 10° WSW 17:11:58 26° NW 17:15:28 10° N
ERS-2 2.2 17:12:03 13° N 17:15:13 77° WNW 17:18:50 10° SSW
X-37B 2.6 17:13:50 10° S 17:15:38 18° SSE 17:15:38 18° SSE
OE (NEXTSAT) 4.2 17:13:18 10° WSW 17:16:44 71° SSE 17:17:12 59° E
CZ-4B R/B 3.2 17:14:12 10° N 17:17:16 32° WNW 17:20:16 10° SW
USA 234 4.1 17:19:06 26° NE 17:21:24 33° NNE 17:27:06 10° NW
Cosmos 1538 Rocket 3.9 17:17:43 10° NNW 17:22:51 62° ENE 17:27:57 10° SSE
Cosmos 1844 Rocket 2.9 17:18:18 10° S 17:23:42 48° ESE 17:25:29 36° ENE
CZ-4C R/B 4.1 17:19:42 10° W 17:23:43 21° NNW 17:28:17 10° NNE
Meteor 2-1 Rocket 4.2 17:21:08 10° N 17:26:37 54° ENE 17:32:00 10° SSE
Cosmos 1092 Rocket 4.2 17:23:25 10° SSE 17:29:16 45° E 17:32:28 25° NNE
Cosmos 1777 Rocket 4.2 17:24:07 10° SSW 17:29:21 71° WNW 17:33:47 15° NNE
PSLV R/B 4.2 17:26:28 13° N 17:30:12 71° WNW 17:34:23 10° SSW
COSMOS 2455 2.8 17:31:02 10° SSW 17:37:04 86° WNW 17:40:26 28° NNE
YAOGAN 1 2.9 17:37:44 10° S 17:42:01 64° W 17:46:19 10° NNW
ATLAS 3B R/B 4.2 17:35:47 10° NW 17:42:10 38° WSW 17:48:46 10° S
CSL-04 Rocket 3.5 17:42:07 10° SSE 17:47:28 80° ENE 17:52:55 10° NNW
CZ-2C R/B 4.4 17:42:46 10° SSW 17:47:35 41° W 17:52:43 10° NNW
Nadezhda 4 Rocket 4.1 17:43:36 10° SSW 17:49:53 77° W 17:56:08 10° N
CZ-4 R/B 2.9 17:50:28 10° SSW 17:54:19 37° W 17:58:09 10° NNW
ATLAS 5 CENTAUR R/B 3.7 17:56:43 10° W 17:59:42 19° NW 18:01:05 16° NNW
H-2A R/B 3.1 18:04:09 10° S 18:08:49 42° W 18:13:35 10° NNW
SJ 16-02 2.1 18:05:21 10° SSW 18:08:46 49° SW 18:08:46 49° SW
Cosmos 1818 4.0 18:20:30 10° SW 18:25:19 59° W 18:25:19 59° W
Cosmos 2026 Rocket 4.2 18:21:34 10° S 18:26:18 57° SSW 18:26:18 57° SSW
USA 267 3.3 18:29:51 66° N 18:30:25 70° NW 18:36:54 10° WSW
ARGOS 4.3 18:26:29 10° SSW 18:31:29 40° W 18:36:31 10° NNW
Cosmos 1844 4.3 18:30:12 10° SW 18:35:08 54° W 18:35:08 54° W
Lacrosse 5 3.7 18:35:37 10° NW 18:37:40 24° NW 18:37:40 24° NW
CZ-2C R/B 3.6 18:43:09 47° W 18:43:09 47° W 18:48:12 10° SW
USA 234 4.2 19:06:27 40° NW 19:06:27 40° NW 19:10:24 10° NW
Cosmos 1844 Rocket 4.5 19:03:02 10° WSW 19:07:13 27° WNW 19:07:13 27° WNW
Cosmos 2344 4.4 19:18:29 10° NW 19:26:40 72° NNW 19:26:40 72° NNW
